Home   Weather   United Kingdom   Guildford   Past weeks
Flag for United Kingdom

Past Weather in Guildford, England, United Kingdom — Yesterday and Last 2 Weeks

Currently: 25 °F. Cold. (Weather station: Farnborough Airport, United Kingdom). See more current weather

Past Weather in Guildford — Graph

°F

Guildford Temperature Yesterday

Maximum temperature yesterday: 39 °F (at 11:50 am)
Minimum temperature yesterday: 25 °F (at 11:20 pm)
Average temperature yesterday: 34 °F

High & Low Weather Summary for the Past Weeks

 TemperatureHumidityPressure
High55 °F (Nov 27, 10:50 am)100% (Nov 23, 5:20 am)30.42 "Hg (Nov 23, 5:20 am)
Low23 °F (Dec 8, 3:20 am)63% (Nov 23, 2:20 pm)29.09 "Hg (Nov 23, 8:20 am)
Average43 °F89%30.04 "Hg
* Reported Nov 23 5:20 am — Dec 8 5:20 am, Guildford. Weather by CustomWeather, © 2022

Note: Actual official high and low records may vary slightly from our data, if they occured in-between our weather recording intervals... More about our weather records

Guildford Weather History for the Previous 24 Hours

Scroll right to see more
 ConditionsComfort  
Time TempWeatherWind HumidityBarometerVisibility
5:20 am
Thu, Dec 8
25 °FCold.1 mph86%29.92 "Hg5 mi
4:50 am25 °FCold.3 mph93%29.92 "Hg5 mi
4:20 am25 °FCold.3 mph93%29.92 "Hg5 mi
3:50 am23 °FCold.3 mph93%29.92 "Hg4 mi
3:20 am23 °FCold.1 mph93%29.92 "Hg4 mi
2:50 am25 °FCold.3 mph86%29.95 "Hg5 mi
2:20 am25 °FCold.1 mph86%29.95 "Hg5 mi
1:50 am25 °FCold.3 mph86%29.95 "Hg5 mi
1:20 am27 °FChilly.No wind86%29.95 "Hg5 mi
12:50 am27 °FChilly.2 mph93%29.98 "Hg6 mi
11:20 pm
Wed, Dec 7
25 °FCold.5 mph86%30.01 "Hg6 mi
10:50 pm27 °FChilly.6 mph93%30.01 "Hg6 mi
9:50 pm28 °FChilly.6 mph100%30.04 "Hg6 mi
9:20 pm27 °FClear.6 mph93%30.04 "Hg10 mi
8:50 pm27 °FChilly.5 mph93%30.04 "Hg5 mi
8:20 pm28 °FChilly.6 mph93%30.04 "Hg6 mi
7:50 pm27 °FPassing clouds.7 mph93%30.04 "HgN/A
7:20 pm30 °FPassing clouds.5 mph93%30.07 "HgN/A
6:50 pm30 °FChilly.3 mph93%30.07 "HgN/A
6:20 pm34 °FChilly.3 mph87%30.07 "HgN/A
5:50 pm36 °FChilly.5 mph87%30.07 "HgN/A
5:20 pm36 °FChilly.5 mph87%30.09 "HgN/A
4:50 pm36 °FPassing clouds.5 mph87%30.09 "HgN/A
4:20 pm37 °FPassing clouds.5 mph81%30.09 "HgN/A
3:50 pm37 °FChilly.5 mph81%30.09 "HgN/A
3:20 pm37 °FChilly.6 mph87%30.09 "HgN/A
2:50 pm39 °FChilly.7 mph75%30.09 "HgN/A
2:20 pm39 °FChilly.8 mph75%30.12 "HgN/A
1:50 pm39 °FChilly.7 mph81%30.12 "HgN/A
1:20 pm39 °FPassing clouds.7 mph81%30.12 "HgN/A
12:50 pm39 °FPassing clouds.8 mph81%30.15 "HgN/A
12:20 pm39 °FPassing clouds.7 mph81%30.15 "HgN/A
11:50 am39 °FPassing clouds.7 mph81%30.15 "HgN/A
11:20 am37 °FScattered clouds.5 mph87%30.18 "HgN/A
10:50 am36 °FScattered clouds.6 mph93%30.18 "HgN/A
9:50 am36 °FPassing clouds.5 mph87%30.21 "Hg4 mi
9:20 am36 °FScattered clouds.5 mph87%30.21 "Hg4 mi
8:50 am36 °FPartly sunny.5 mph93%30.21 "Hg4 mi
8:20 am36 °FPartly sunny.5 mph93%30.21 "Hg5 mi
7:50 am36 °FPartly sunny.5 mph93%30.21 "Hg5 mi
7:20 am36 °FPassing clouds.6 mph93%30.21 "Hg5 mi
6:50 am36 °FPassing clouds.2 mph93%30.18 "Hg4 mi
6:20 am36 °FPartly cloudy.3 mph93%30.18 "Hg4 mi
Weather by CustomWeather, © 2022

See weather overview